This is the latest recevied weather packets stored in our database for station/object KQ4HDO. If no packets are shown the sender has not sent any weather packets the latest 10 day(s).
| Time | Temp. | Humidity | Pressure | Rain* | Wind** | Luminosity | Snow |
|---|---|---|---|---|---|---|---|
| 1777614138 | 11.67° C | 72% | 1016.3 hPa | 0 mm | - | - | - |
| 1777613403 | 11.67° C | 72% | 1016.2 hPa | 0 mm | - | - | - |
| 1777612503 | 11.67° C | 72% | 1016.3 hPa | 0 mm | - | - | - |
| 1777612203 | 11.67° C | 72% | 1016.3 hPa | 0 mm | - | - | - |
| 1777609203 | 12.22° C | 78% | 1015.9 hPa | 0 mm | - | - | - |
| 1777608903 | 12.22° C | 79% | 1015.7 hPa | 0 mm | - | - | - |
| 1777608603 | 12.22° C | 78% | 1015.7 hPa | 0 mm | - | - | - |
| 1777608003 | 12.22° C | 80% | 1015.6 hPa | 0 mm | - | - | - |
| 1777607703 | 12.22° C | 81% | 1015.6 hPa | 0 mm | - | - | - |
| 1777605438 | 12.22° C | 82% | 1015.6 hPa | 0 mm | - | - | - |
| 1777604838 | 12.22° C | 82% | 1015.5 hPa | 0 mm | - | - | - |
| 1777603203 | 12.22° C | 82% | 1015.3 hPa | 0 mm | - | - | - |
| 1777602303 | 12.22° C | 81% | 1015.1 hPa | 0 mm | - | - | - |
| 1777601837 | 12.78° C | 81% | 1015 hPa | 0 mm | - | - | - |
| 1777596003 | 13.33° C | 71% | 1014.3 hPa | 0 mm | - | - | - |
| 1777595703 | 13.89° C | 67% | 1014.4 hPa | 0 mm | - | - | - |
| 1777594036 | 17.22° C | 43% | 1013.3 hPa | 0 mm | - | - | - |
| 1777592703 | 17.22° C | 42% | 1013.1 hPa | 0 mm | - | - | - |
| 1777591803 | 17.78° C | 41% | 1013.2 hPa | 0 mm | - | - | - |
| 1777590603 | 18.33° C | 40% | 1013.3 hPa | 0 mm | - | - | - |
| 1777590303 | 17.78° C | 40% | 1013.4 hPa | 0 mm | - | - | - |
| 1777589703 | 18.33° C | 40% | 1013.4 hPa | 0 mm | - | - | - |
| 1777589238 | 18.33° C | 40% | 1013.4 hPa | 0 mm | - | - | - |
| 1777587737 | 18.33° C | 39% | 1013.4 hPa | 0 mm | - | - | - |
| 1777586403 | 18.89° C | 40% | 1013.5 hPa | 0 mm | - | - | - |
* Rain latest hour (hover to see other rain measurements)
** Current wind speed in m/s (hover to see current wind gust speed)